Location: Maccacari
(45.1333°N, 11.1333°E)
Time: 07:59:33
(UTC+00:00)

Cosmos 1707 - Pass Details

Date: 18 September 2020
Orbit: 515 x 530 km, 82.5° (Epoch: 29 October)

Event Time Altitude Azimuth Distance (km) Brightness Sun altitude
Rises 19:16:41 0° 342° (NNW) 2,651 6.9 -20.7°
Reaches altitude 10° 19:18:58 10° 333° (NNW) 1,756 6.1 -21.1°
Maximum altitude 19:22:26 33° 268° (W) 887 4.4 -21.6°
Drops below altitude 10° 19:25:53 10° 204° (SSW) 1,739 5.3 -22.2°
Enters shadow 19:25:55 10° 204° (SSW) 1,752 5.3 -22.2°
